LRBS Weather Reports


Display with metric or nautical units.
time (UTC)temp
F
wind
direction
speed
MPH
gust
MPH
rain 1hr
in
rain 24hr
in
rain mn
in
humidity
%
barometer
mb
20260905113314 90 260 8.0 0.0 0.00 0.00 0.00 29 1016.0
20260905111833 88 260 9.0 0.0 0.00 0.00 0.00 31 1016.0
20260905110314 88 260 9.0 0.0 0.00 0.00 0.00 31 1016.0
20260905104814 88 270 10.0 0.0 0.00 0.00 0.00 33 1016.0
20260905103314 88 270 10.0 0.0 0.00 0.00 0.00 33 1016.0
20260905101814 86 260 9.0 0.0 0.00 0.00 0.00 33 1016.0
20260905100315 86 260 9.0 0.0 0.00 0.00 0.00 33 1016.0
20260905094930 86 280 8.0 0.0 0.00 0.00 0.00 33 1016.0
20260905093314 86 280 8.0 0.0 0.00 0.00 0.00 33 1016.0
20260905091814 84 280 8.0 0.0 0.00 0.00 0.00 37 1016.0
20260905090314 84 280 8.0 0.0 0.00 0.00 0.00 37 1016.0
20260905084814 82 280 7.0 0.0 0.00 0.00 0.00 42 1017.0
20260905083314 82 280 7.0 0.0 0.00 0.00 0.00 42 1017.0
20260905081814 81 260 8.0 0.0 0.00 0.00 0.00 45 1017.0
20260905080315 81 260 8.0 0.0 0.00 0.00 0.00 45 1017.0
20260905074814 77 6.0 0.0 0.00 0.00 0.00 47 1017.0
20260905073323 77 6.0 0.0 0.00 0.00 0.00 47 1017.0
20260905071815 73 270 7.0 0.0 0.00 0.00 0.00 57 1017.0
20260905070314 73 270 7.0 0.0 0.00 0.00 0.00 57 1017.0
20260905064815 72 270 7.0 0.0 0.00 0.00 0.00 61 1017.0
20260905063315 72 270 7.0 0.0 0.00 0.00 0.00 61 1017.0
20260905061815 68 270 5.0 0.0 0.00 0.00 0.00 69 1016.0
20260905060315 68 270 5.0 0.0 0.00 0.00 0.00 69 1016.0
20260905054815 66 280 3.0 0.0 0.00 0.00 0.00 73 1016.0
20260905053315 66 280 3.0 0.0 0.00 0.00 0.00 73 1016.0
20260905051814 64 260 3.0 0.0 0.00 0.00 0.00 83 1016.0
20260905050314 64 260 3.0 0.0 0.00 0.00 0.00 83 1016.0
20260905044815 63 290 5.0 0.0 0.00 0.00 0.00 83 1016.0
20260905043314 63 290 5.0 0.0 0.00 0.00 0.00 83 1016.0
20260905041814 61 310 3.0 0.0 0.00 0.00 0.00 88 1016.0
20260905040314 61 310 3.0 0.0 0.00 0.00 0.00 88 1016.0
20260905034815 61 2.0 0.0 0.00 0.00 0.00 83 1016.0
20260905033314 61 2.0 0.0 0.00 0.00 0.00 83 1016.0
20260905031815 61 2.0 0.0 0.00 0.00 0.00 83 1016.0
20260905030314 61 2.0 0.0 0.00 0.00 0.00 83 1016.0
20260905024827 61 260 3.0 0.0 0.00 0.00 0.00 88 1016.0
20260905023314 61 260 3.0 0.0 0.00 0.00 0.00 88 1016.0
20260905021814 61 1.0 0.0 0.00 0.00 0.00 88 1016.0
20260905020315 61 1.0 0.0 0.00 0.00 0.00 88 1016.0
20260905014815 63 1.0 0.0 0.00 0.00 0.00 83 1016.0
20260905013314 63 1.0 0.0 0.00 0.00 0.00 83 1016.0
20260905011814 64 0 0.0 0.0 0.00 0.00 0.00 78 1016.0
20260905010315 64 0 0.0 0.0 0.00 0.00 0.00 78 1016.0
20260905004815 64 340 3.0 0.0 0.00 0.00 0.00 78 1016.0
20260905003315 64 340 3.0 0.0 0.00 0.00 0.00 78 1016.0
20260905001814 64 0 0.0 0.0 0.00 0.00 0.00 83 1016.0
20260905000314 64 0 0.0 0.0 0.00 0.00 0.00 83 1016.0
20260904234814 66 250 2.0 0.0 0.00 0.00 0.00 73 1016.0
20260904233314 66 250 2.0 0.0 0.00 0.00 0.00 73 1016.0
20260904231816 68 1.0 0.0 0.00 0.00 0.00 69 1016.0
20260904230314 68 1.0 0.0 0.00 0.00 0.00 69 1016.0
20260904224816 68 1.0 0.0 0.00 0.00 0.00 69 1016.0
20260904223314 68 1.0 0.0 0.00 0.00 0.00 69 1016.0
20260904221815 70 2.0 0.0 0.00 0.00 0.00 69 1016.0
20260904220314 70 2.0 0.0 0.00 0.00 0.00 69 1016.0
20260904214815 70 0 0.0 0.0 0.00 0.00 0.00 64 1016.0
20260904213314 70 0 0.0 0.0 0.00 0.00 0.00 64 1016.0
20260904211815 72 240 3.0 0.0 0.00 0.00 0.00 61 1016.0
20260904210313 72 240 3.0 0.0 0.00 0.00 0.00 61 1016.0
20260904204816 73 210 5.0 0.0 0.00 0.00 0.00 57 1016.0
20260904203315 73 210 5.0 0.0 0.00 0.00 0.00 57 1016.0
20260904201815 72 0 0.0 0.0 0.00 0.00 0.00 61 1016.0
20260904200330 72 360 2.0 0.0 0.00 0.00 0.00 65 1016.0
20260904194814 72 360 2.0 0.0 0.00 0.00 0.00 65 1016.0
20260904193330 75 90 2.0 0.0 0.00 0.00 0.00 54 1016.0
20260904191814 75 90 2.0 0.0 0.00 0.00 0.00 54 1016.0
20260904190315 75 90 2.0 0.0 0.00 0.00 0.00 54 1016.0
20260904184815 77 1.0 0.0 0.00 0.00 0.00 51 1016.0
20260904183314 77 1.0 0.0 0.00 0.00 0.00 51 1016.0
20260904181819 77 0 0.0 0.0 0.00 0.00 0.00 47 1016.0
20260904180314 77 0 0.0 0.0 0.00 0.00 0.00 47 1016.0
20260904174814 79 350 1.0 0.0 0.00 0.00 0.00 48 1016.0
20260904173314 79 350 1.0 0.0 0.00 0.00 0.00 48 1016.0
20260904171815 81 0 0.0 0.0 0.00 0.00 0.00 42 1015.0
20260904170314 81 0 0.0 0.0 0.00 0.00 0.00 42 1015.0
20260904164814 82 280 3.0 0.0 0.00 0.00 0.00 37 1015.0
20260904163314 82 280 3.0 0.0 0.00 0.00 0.00 37 1015.0
20260904161814 84 280 3.0 0.0 0.00 0.00 0.00 35 1015.0
20260904160314 84 280 3.0 0.0 0.00 0.00 0.00 35 1015.0
20260904154815 86 260 6.0 0.0 0.00 0.00 0.00 33 1015.0
20260904153316 86 260 6.0 0.0 0.00 0.00 0.00 33 1015.0
20260904151814 86 270 7.0 0.0 0.00 0.00 0.00 33 1015.0
20260904150315 86 270 7.0 0.0 0.00 0.00 0.00 33 1015.0
20260904144815 86 270 8.0 0.0 0.00 0.00 0.00 33 1015.0
20260904143315 86 270 8.0 0.0 0.00 0.00 0.00 33 1015.0
20260904141814 86 260 8.0 0.0 0.00 0.00 0.00 31 1015.0
20260904140324 86 260 8.0 0.0 0.00 0.00 0.00 31 1015.0
20260904134814 86 260 10.0 0.0 0.00 0.00 0.00 33 1016.0
20260904133315 86 260 10.0 0.0 0.00 0.00 0.00 33 1016.0
20260904131814 84 280 7.0 0.0 0.00 0.00 0.00 37 1016.0
20260904130314 84 280 7.0 0.0 0.00 0.00 0.00 37 1016.0
20260904124814 84 280 7.0 0.0 0.00 0.00 0.00 37 1016.0
20260904123314 84 280 7.0 0.0 0.00 0.00 0.00 37 1016.0
20260904121815 84 260 9.0 0.0 0.00 0.00 0.00 40 1016.0
20260904120314 84 260 9.0 0.0 0.00 0.00 0.00 40 1016.0
20260904114814 82 260 10.0 0.0 0.00 0.00 0.00 42 1017.0